This is the latest recevied weather packets stored in our database for station/object F5OZP-13. If no packets are shown the sender has not sent any weather packets the latest 10 day(s).
| Time | Temp. | Humidity | Pressure | Rain* | Wind** | Luminosity | Snow |
|---|---|---|---|---|---|---|---|
| 1777534297 | 21.11° C | 99% | 1016.3 hPa | - | - | 0 W/m² | - |
| 1777533980 | 20.56° C | 99% | 1016.1 hPa | - | - | 0 W/m² | - |
| 1777533672 | 20.56° C | 99% | 1016.1 hPa | - | - | 1 W/m² | - |
| 1777533364 | 19.44° C | 99% | 1016.1 hPa | - | - | 1 W/m² | - |
| 1777533056 | 19.44° C | 99% | 1016 hPa | - | - | 1 W/m² | - |
| 1777532752 | 19.44° C | 99% | 1015.8 hPa | - | - | 0 W/m² | - |
| 1777532452 | 18.89° C | 99% | 1015.8 hPa | - | - | 0 W/m² | - |
| 1777532137 | 18.89° C | 99% | 1015.8 hPa | - | - | 0 W/m² | - |
| 1777531828 | 18.89° C | 99% | 1015.9 hPa | - | - | 0 W/m² | - |
| 1777531519 | 18.89° C | 99% | 1015.9 hPa | - | - | 0 W/m² | - |
| 1777531211 | 18.33° C | 99% | 1016 hPa | - | - | 0 W/m² | - |
| 1777530903 | 18.33° C | 99% | 1015.8 hPa | - | - | 0 W/m² | - |
| 1777530603 | 18.33° C | 99% | 1015.8 hPa | - | - | 0 W/m² | - |
| 1777530287 | 18.89° C | 99% | 1016.1 hPa | - | - | 0 W/m² | - |
| 1777529978 | 18.89° C | 99% | 1016.3 hPa | - | - | 0 W/m² | - |
| 1777529670 | 19.44° C | 99% | 1016.4 hPa | - | - | 0 W/m² | - |
| 1777529367 | 19.44° C | 99% | 1016.5 hPa | - | - | 0 W/m² | - |
| 1777529059 | 19.44° C | 99% | 1016.5 hPa | - | - | 0 W/m² | - |
| 1777528758 | 19.44° C | 99% | 1016.4 hPa | - | - | 0 W/m² | - |
| 1777528442 | 19.44° C | 99% | 1016.4 hPa | - | - | 0 W/m² | - |
* Rain since midnight (hover to see other rain measurements)
** Current wind speed in m/s (hover to see current wind gust speed)